Weather History for Walla Walla, WA

Change the Weather History Date:

Monday, May 13, 2013

  Actual Average Record
Temperature  
Mean Temperature 64 °F -  
Max Temperature 75 °F 71 °F 92 °F (1959)
Min Temperature 54 °F 47 °F 37 °F (2006)
Degree Days  
Heating Degree Days 1    
Growing Degree Days 14 (Base 50)    
Moisture  
Dew Point 48 °F    
Average Humidity 60    
Maximum Humidity 88    
Minimum Humidity 45    
Precipitation  
Precipitation 0.09 in - - ()
Sea Level Pressure  
Sea Level Pressure 30.04 in    
Wind  
Wind Speed 9 mph (SSW)    
Max Wind Speed 20 mph    
Max Gust Speed 25 mph    
Visibility 9 miles    
Events Rain    
Averages and records for this station are not official NWS values.
T = Trace of Precipitation, MM = Missing Value Source: NWS Daily Summary

Daily Weather History Graph

Daily Weather History Graph

Search for Another Location

Airport:

Trip Planner

Search our weather history database for the weather conditions in past years. The results will help you decide how hot, cold, wet, or windy it might be!

Date:

Astronomy

May. 13, 2013 Rise Set
Actual Time 5:22 AM PDT 8:17 PM PDT
Civil Twilight 4:47 AM PDT 8:52 PM PDT
Nautical Twilight 4:03 AM PDT 9:36 PM PDT
Astronomical Twilight 3:10 AM PDT 10:30 PM PDT
Moon 8:11 AM PDT (5/13) 11:29 PM PDT (5/13)
Length of Visible Light 16h 04m
Length of Day
14h 54m
Waxing Crescent, 13% of the Moon is Illuminated
May 13
Waxing Crescent
May 17
First Quarter
May 24
Full
May 31
Last Quarter
Jun 8
New

Hourly Weather History & Observations

Time (PDT) Temp. Dew Point Humidity Pressure Visibility Wind Dir Wind Speed Gust Speed Precip Events Conditions
12:53 AM 64.0 °F 48.0 °F 56% 30.02 in 10.0 mi South 8.1 mph - N/A   Clear
1:53 AM 63.0 °F 46.9 °F 56% 30.01 in 10.0 mi South 9.2 mph - N/A   Clear
2:53 AM 63.0 °F 46.9 °F 56% 30.00 in 10.0 mi South 8.1 mph - N/A   Clear
3:53 AM 57.9 °F 46.9 °F 67% 30.00 in 10.0 mi Calm Calm - N/A   Clear
4:53 AM 59.0 °F 48.0 °F 67% 30.01 in 10.0 mi SE 4.6 mph - N/A   Clear
5:53 AM 62.1 °F 48.0 °F 60% 30.01 in 10.0 mi SSE 5.8 mph - N/A   Mostly Cloudy
6:53 AM 64.0 °F 48.9 °F 58% 30.01 in 10.0 mi South 4.6 mph - N/A   Partly Cloudy
7:53 AM 64.0 °F 48.9 °F 58% 30.01 in 10.0 mi South 9.2 mph - N/A   Scattered Clouds
8:53 AM 68.0 °F 50.0 °F 52% 30.00 in 10.0 mi SSW 8.1 mph - N/A   Mostly Cloudy
9:53 AM 70.0 °F 50.0 °F 49% 29.99 in 10.0 mi SW 9.2 mph - N/A   Clear
10:53 AM 72.0 °F 51.1 °F 48% 29.98 in 10.0 mi WSW 10.4 mph 17.3 mph N/A   Scattered Clouds
11:53 AM 73.9 °F 51.1 °F 45% 29.97 in 10.0 mi West 16.1 mph 24.2 mph N/A   Scattered Clouds
1:53 PM 68.0 °F 46.9 °F 47% 29.99 in 10.0 mi West 15.0 mph - 0.00 in   Overcast
2:53 PM 64.9 °F 44.1 °F 47% 30.02 in 10.0 mi WNW 19.6 mph 25.3 mph N/A   Overcast
3:40 PM 57.2 °F 51.8 °F 82% 30.09 in 2.5 mi WNW 6.9 mph - 0.04 in Rain Rain
3:53 PM 55.9 °F 52.0 °F 87% 30.08 in 3.0 mi Calm Calm - 0.09 in Rain Rain
4:02 PM 55.4 °F 51.8 °F 88% 30.08 in 2.0 mi SSW 4.6 mph - 0.02 in Rain Rain
5:53 PM 64.9 °F 50.0 °F 58% 30.03 in 10.0 mi South 15.0 mph 23.0 mph 0.00 in   Clear
6:53 PM 64.9 °F 50.0 °F 58% 30.03 in 10.0 mi SSW 10.4 mph - N/A   Clear
7:53 PM 63.0 °F 50.0 °F 63% 30.06 in 10.0 mi WSW 12.7 mph 23.0 mph N/A   Clear
8:53 PM 59.0 °F 43.0 °F 55% 30.10 in 10.0 mi SW 15.0 mph - N/A   Clear
9:53 PM 57.9 °F 42.1 °F 56% 30.14 in 10.0 mi SSW 15.0 mph - N/A   Clear
10:53 PM 55.0 °F 42.1 °F 62% 30.15 in 10.0 mi SSW 17.3 mph - N/A   Clear
11:53 PM 54.0 °F 42.1 °F 64% 30.16 in 10.0 mi SSW 13.8 mph - N/A   Scattered Clouds